Volver al catálogo

STARLINK-32633

ActivoComunicacionesVLEO
NORAD 62306·PAYLOAD·🇺🇸 United States

Lanzado Dec 13, 2024 desde Vandenberg Space Force Base

Loading…

Próximos Pases (próximas 24 horas)

TLE

ActualizadoSource: CelesTrak SupGP

Época: Sep 15, 2026, 03:07 UTC

1 62306C 24239F   26258.13034722  .00020371  00000+0  60194-3 0  2585
2 62306  53.1602  30.9868 0001196  90.5091 153.1925 15.34376595    16

Sigue STARLINK-32633 en tiempo real con AllMySat

Download on the App Store